SCP
1 1 1 1 1 1 1 0 0 0 0 0 0 0 0 0 0 0 0 0 0 0 0 0 0 0 0 1 1 1 1 1 0 0 0 1 1 0 0 0 0 0 0
1 1 1 1 1 1 0 0 0 0 0 0 0 0 0 0 0 0 0 0 0 0 0 0 0 0 0 1 1 1 1 1 1 0 0 1 1 0 0 0 0 0 0
1 1 1 1 1 1 0 0 0 0 0 0 0 0 0 0 0 0 0 0 0 0 0 0 0 0 0 0 0 0 0 1 1 1 0 1 1 0 0 0 0 0 0
1 1 1 1 1 0 0 0 0 0 0 0 0 0 0 0 0 0 0 0 0 0 0 0 0 0 0 0 0 0 0 0 0 0 0 1 0 0 0 0 0 0 0
1 1 1 1 0 0 0 0 0 0 0 0 0 0 0 0 0 0 0 0 0 0 0 0 0 0 0 0 0 0 0 0 0 0 0 0 0 0 0 0 0 0 0
1 1 0 0 0 0 0 0 0 0 0 0 0 0 0 0 0 0 0 0 0 0 0 0 0 0 0 0 0 0 0 0 0 0 0 0 0 0 0 0 0 0 0
1 0 0 0 0 0 0 0 0 0 0 0 0 0 0 0 0 0 0 0 0 0 0 0 0 0 0 0 0 0 0 0 0 0 0 0 0 0 0 0 0 0 0
1 0 0 0 0 0 0 0 0 0 0 0 0 0 0 0 0 0 0 0 0 0 0 0 0 0 0 0 0 0 0 0 0 0 0 0 0 0 0 0 0 0 0
1 0 0 0 0 0 0 0 0 0 0 0 0 0 0 0 0 0 0 0 0 0 0 0 0 0 0 0 0 0 0 0 0 0 0 0 0 0 0 0 0 0 0
0 0 0 0 0 0 0 0 0 0 0 0 0 0 0 0 0 0 0 0 0 0 0 0 0 0 0 0 0 0 0 0 0 0 0 0 0 0 0 0 0 0 0
0 0 0 0 0 0 0 0 0 0 0 0 0 0 0 0 0 0 0 0 0 0 0 0 0 0 0 0 0 0 0 0 0 0 0 0 0 0 0 0 0 0 0
0 0 0 0 0 0 0 0 0 0 0 0 0 0 0 0 0 0 0 0 0 0 0 0 0 0 0 0 0 0 0 0 0 0 0 0 0 0 0 0 0 0 0
0 0 0 0 0 0 0 0 0 0 0 0 0 0 0 0 0 0 0 0 0 0 0 0 0 0 0 0 0 0 0 0 0 0 0 0 0 0 0 0 0 0 0
0 0 0 0 0 0 0 0 0 0 0 0 0 0 0 0 0 0 0 0 0 0 0 0 0 0 0 0 0 0 0 0 0 0 0 0 0 0 0 0 0 0 0
0 0 0 0 0 0 0 0 0 0 0 0 0 0 0 0 0 0 0 0 0 0 0 0 0 0 0 0 0 0 0 0 0 0 0 0 0 0 0 0 0 0 0
0 0 0 0 0 0 0 0 0 0 0 0 0 0 0 0 0 0 0 0 0 0 0 0 0 0 0 0 0 0 0 0 0 0 0 0 0 0 0 0 0 0 0
0 0 0 0 0 0 0 0 0 0 0 0 0 0 0 0 0 0 0 0 0 0 0 0 0 0 0 0 0 0 0 0 0 0 0 0 0 0 0 0 0 0 0
0 0 0 0 0 0 0 0 0 0 0 0 0 0 0 0 0 0 0 0 0 0 0 0 0 0 0 0 0 0 0 0 0 0 0 0 0 0 0 0 0 0 0
0 0 0 0 0 0 0 0 0 0 0 0 0 0 0 0 0 0 0 0 0 0 0 0 0 0 0 0 0 0 0 0 0 0 0 0 0 0 0 0 0 0 0
0 0 0 0 0 0 0 0 0 0 0 0 0 0 0 0 0 0 0 0 0 0 0 0 0 0 0 0 0 0 0 0 0 0 0 0 0 0 0 0 0 0 0
0 0 0 0 0 0 0 0 0 0 0 0 0 0 0 0 0 0 0 0 0 0 0 0 0 0 0 0 0 0 0 0 0 0 0 0 0 0 0 0 0 0 0
0 0 0 0 0 0 0 0 0 0 0 0 0 0 0 0 0 0 0 0 0 0 0 0 0 0 0 0 0 0 0 0 0 0 0 0 0 0 0 0 0 0 0
0 0 0 0 0 0 0 0 0 0 0 0 0 0 0 0 0 0 0 0 0 0 0 0 0 0 0 0 0 0 0 0 0 0 0 0 0 0 0 0 0 0 0
0 0 0 0 0 0 0 0 0 0 0 0 0 0 0 0 0 0 0 0 0 0 0 0 0 0 0 0 0 0 0 0 0 0 0 0 0 0 0 0 0 0 0
0 0 0 0 0 0 0 0 0 0 0 0 0 0 0 0 0 0 0 0 0 0 0 0 0 0 0 0 0 0 0 0 0 0 0 0 0 0 0 0 0 0 0
0 0 0 0 0 0 0 0 0 0 0 0 0 0 0 0 0 0 0 0 0 0 0 0 0 0 0 0 0 0 0 0 0 0 0 0 0 0 0 0 0 0 0
Wind_Speed
5 4 4 3 3 3 3 3 3 2 3 4 4 4 5 5 5 5 6 6 6 6 6 7 7 6 4 4 4 4 5 5 6 5 3 2 2 3 2 3 3 3 2
4 4 4 3 2 2 2 1 1 1 2 2 2 2 3 3 3 4 5 5 5 5 5 5 5 4 5 4 4 4 4 4 5 5 3 2 2 3 3 3 3 2 1
4 4 4 3 2 2 1 1 0 0 0 0 0 1 1 1 1 2 2 2 3 3 3 3 3 3 4 3 3 3 3 3 3 4 3 2 2 1 2 2 1 2 2
4 4 4 3 2 2 2 2 1 1 2 2 2 2 2 2 1 0 0 0 0 0 1 0 1 2 2 2 2 2 2 2 2 3 3 2 2 1 1 1 1 1 1
4 4 4 4 3 3 3 3 3 3 3 3 4 3 3 2 2 2 1 1 2 2 2 2 3 4 4 3 2 1 1 1 1 1 1 1 1 2 2 2 2 1 1
4 4 4 4 4 4 4 4 4 4 5 5 5 4 5 5 7 7 4 4 4 4 3 3 4 4 5 6 7 7 5 3 2 1 1 1 2 3 3 3 3 2 2
5 4 4 4 4 5 5 5 5 5 6 6 5 6 6 8 9 8 7 5 6 5 5 4 4 5 4 4 6 6 7 7 5 3 3 3 3 3 3 2 3 3 3
6 5 5 5 6 6 6 6 6 5 6 6 6 7 7 8 9 8 7 7 8 8 7 6 5 5 5 4 5 6 7 7 6 5 5 5 5 5 3 2 1 1 1
6 5 5 6 7 7 6 6 6 6 6 6 6 7 7 8 9 7 5 7 8 9 9 9 8 7 8 5 6 6 7 6 9 10 8 7 8 8 6 4 3 2 2
6 6 6 6 7 7 7 6 6 6 7 7 8 8 9 9 10 9 5 6 7 7 8 9 13 11 11 9 6 6 7 6 5 6 6 5 6 7 7 6 5 4 3
7 6 6 7 7 7 7 6 6 7 8 8 9 9 9 9 9 10 8 5 6 7 7 7 8 11 11 10 8 7 5 3 4 5 5 5 5 5 6 7 6 5 4
7 7 7 7 6 6 7 7 7 8 8 8 8 8 7 8 9 10 11 10 7 8 7 7 7 9 11 10 8 6 4 2 3 4 4 5 5 5 5 6 6 6 4
8 8 8 8 7 7 7 7 7 6 6 6 6 6 6 6 8 11 11 11 10 8 8 9 7 5 6 8 8 5 3 3 4 4 5 5 5 4 3 2 3 2 2
9 8 8 8 8 7 5 5 5 5 5 5 5 6 6 6 5 5 6 7 9 8 7 7 6 5 5 5 4 4 6 6 5 5 5 4 3 3 3 4 4 3 2
9 8 8 8 8 8 9 9 7 8 6 4 5 5 5 6 7 8 5 5 5 5 3 3 4 5 5 6 6 6 6 5 5 5 4 4 4 4 4 4 4 3 3
8 7 7 7 7 7 9 10 17 14 15 15 13 9 10 10 9 10 10 9 6 4 2 5 5 5 6 6 5 5 5 5 5 4 4 4 4 4 4 4 4 4 4
8 7 6 7 7 7 7 9 9 10 14 16 14 14 12 10 9 8 7 5 2 3 3 6 5 5 5 5 5 5 5 5 4 4 4 4 4 4 4 4 4 5 5
9 8 7 6 6 6 7 7 7 8 9 8 10 11 10 9 7 5 2 2 3 3 5 5 5 5 5 5 5 5 5 4 4 4 4 4 4 4 4 4 4 6 5
7 6 6 6 6 6 7 7 7 8 8 8 8 8 7 7 6 2 1 2 5 5 5 5 5 5 5 5 5 4 4 4 5 4 4 5 4 4 4 5 4 4 5
7 7 6 6 7 7 7 7 7 7 7 7 6 6 6 5 4 4 3 4 5 5 5 5 5 5 5 4 4 4 4 4 4 4 4 4 4 4 4 5 5 5 5
8 8 6 6 6 7 7 7 6 6 6 6 6 6 3 2 5 5 5 5 5 5 5 5 4 4 4 4 4 4 5 4 4 5 4 4 4 4 4 5 5 5 5
7 7 6 6 6 6 6 6 6 7 7 7 7 6 1 2 4 5 5 5 5 4 4 3 3 4 4 4 4 4 4 5 5 5 5 4 4 4 4 4 5 5 6
7 8 7 7 7 7 6 6 6 6 6 6 5 5 4 4 5 5 5 5 4 4 3 3 3 4 4 4 4 4 5 5 5 6 6 5 4 4 4 4 5 5 6
7 8 8 7 7 6 6 6 6 6 6 5 5 5 5 4 4 5 4 4 3 3 2 2 3 5 5 4 4 5 7 7 8 5 6 6 6 5 5 5 5 6 6
7 7 7 7 6 6 6 5 5 5 5 5 5 4 5 4 4 4 3 3 2 2 2 2 3 3 4 6 6 7 8 7 6 8 7 5 5 6 6 6 6 6 6
7 7 6 6 5 5 5 5 4 4 4 4 4 4 3 3 3 3 2 2 1 2 1 2 3 3 3 3 7 6 4 5 6 8 8 6 5 5 7 6 7 6 6
Wind_Direction
182 185 189 195 198 206 229 246 255 256 248 242 232 234 235 236 233 231 237 235 236 240 240 237 237 244 246 243 239 239 241 239 249 265 263 277 277 290 298 275 260 247 193
165 166 166 172 181 187 204 230 238 254 269 257 239 229 232 237 239 238 237 235 238 245 245 245 247 243 238 244 239 238 243 248 248 258 268 261 251 265 282 284 287 275 261
148 151 150 156 157 158 153 148 192 145 27 351 17 283 274 261 243 241 233 232 236 246 249 247 252 254 247 238 237 242 247 247 247 250 259 266 263 273 271 277 298 317 288
137 143 143 140 137 130 120 111 95 85 77 62 63 41 32 38 55 63 141 202 212 219 240 271 305 278 264 247 236 242 247 253 250 254 262 265 274 303 287 276 290 308 320
133 133 129 130 126 114 108 102 93 84 80 70 68 63 61 63 50 42 63 91 89 85 72 63 51 48 39 18 355 348 304 276 267 270 284 306 341 346 333 330 331 343 50
125 122 120 123 119 111 107 108 104 94 81 74 71 66 56 49 44 38 37 68 71 71 66 67 73 69 73 72 59 51 33 6 340 324 351 12 10 355 348 343 352 354 21
116 116 121 122 112 106 108 109 103 96 90 80 73 70 64 53 46 46 49 65 66 61 58 56 56 58 61 83 87 84 63 47 30 16 37 22 21 9 354 1 23 10 11
114 111 113 116 111 108 105 99 97 95 88 83 77 74 73 58 47 53 63 74 70 64 59 55 58 56 47 55 76 73 63 49 41 46 47 35 34 13 350 353 18 69 95
111 110 109 114 115 115 110 103 95 91 87 84 80 76 75 63 41 39 55 84 78 69 60 50 49 60 36 38 77 77 74 74 72 72 68 69 62 48 24 20 24 11 25
111 109 109 113 115 114 110 104 97 94 91 88 80 72 71 66 45 38 41 87 86 82 73 64 53 50 41 36 66 73 74 65 68 80 80 77 68 65 54 35 18 11 9
111 110 107 105 107 109 108 106 106 102 95 90 85 78 71 66 60 44 37 72 84 84 77 69 57 49 50 44 50 61 55 42 71 71 69 63 60 51 44 41 26 14 13
112 109 106 105 106 109 110 108 108 111 107 100 94 88 82 71 61 57 52 52 59 82 77 76 72 63 64 57 57 48 17 342 64 65 59 52 46 44 43 39 37 34 29
111 107 103 98 93 102 110 114 116 116 111 108 105 98 92 90 88 79 72 65 61 77 79 79 80 88 99 81 66 34 18 43 49 54 55 51 49 44 32 46 65 66 69
113 110 107 103 97 90 89 93 97 99 105 108 105 103 102 95 86 93 104 104 110 105 104 114 115 82 80 85 84 59 49 40 31 44 46 46 43 42 32 21 12 12 26
117 115 111 104 99 85 70 49 56 54 43 66 90 96 95 91 60 38 48 68 64 68 87 99 77 70 61 59 59 53 46 46 44 42 38 35 30 30 30 24 6 360 12
126 124 119 116 113 111 106 86 54 58 57 55 52 69 77 79 83 72 67 62 51 1 30 77 67 58 51 50 51 54 52 44 36 34 33 27 21 17 17 14 3 2 6
126 127 124 124 125 125 122 118 110 83 67 61 61 68 82 91 87 86 87 81 38 326 76 74 66 58 52 48 45 44 45 43 24 26 26 20 11 7 10 13 11 3 2
124 120 123 125 127 126 125 124 123 123 116 99 80 79 90 93 90 89 117 164 104 76 69 69 65 59 52 44 41 38 38 35 28 23 22 14 6 4 6 6 16 3 350
124 123 120 123 127 124 123 120 117 116 115 117 120 112 115 124 122 97 295 65 72 70 67 63 57 52 48 45 39 33 31 32 22 9 20 9 4 0 2 357 5 3 329
107 108 125 131 127 126 126 124 121 122 121 119 116 118 138 151 123 108 87 68 71 71 67 65 60 52 47 41 36 29 30 32 22 16 18 3 2 360 1 355 353 347 347
124 124 135 131 121 121 122 120 120 120 116 110 100 80 17 104 94 86 79 73 67 67 62 60 61 56 48 34 28 29 22 23 20 12 7 360 358 358 354 352 348 345 346
126 130 129 118 117 115 117 120 121 117 115 113 114 120 113 99 93 90 85 78 71 65 58 46 47 46 34 24 19 15 18 20 15 4 357 353 352 349 350 351 348 346 343
127 127 122 117 116 120 128 122 120 119 118 117 121 120 118 98 94 90 86 79 71 65 59 47 39 44 40 29 19 14 14 14 7 357 341 340 343 344 344 345 338 338 343
125 125 123 123 126 131 125 123 121 123 122 121 118 115 113 107 100 93 88 84 76 68 57 50 48 49 37 23 20 34 34 12 345 341 341 333 333 338 339 337 335 343 337
125 124 125 127 129 127 124 125 124 125 126 125 124 123 118 116 114 113 105 100 96 78 62 50 54 56 43 35 33 41 36 7 349 335 320 321 331 334 332 333 337 336 336
124 123 119 117 117 119 124 126 126 129 132 131 127 122 121 126 125 121 118 111 108 99 80 70 61 54 38 47 56 52 30 357 342 324 311 317 326 335 334 323 329 327 335